Presure
206 270 268 254 255 232 236 223 237 242 260 246 256 274 273 259 236 243 253 246 236 224 226 217 213 213 219 215 217 205 216 214 211 212 214 229 227 230 216 227 237 231 247
281 250 242 244 231 227 216 225 231 215 214 223 247 239 242 240 242 247 177 217 227 216 208 206 205 212 205 188 209 215 211 215 206 207 204 230 212 211 231 228 228 213 227
236 244 226 236 209 230 212 227 192 217 218 193 218 215 217 217 211 211 212 207 199 199 219 215 212 203 204 202 199 204 208 215 208 201 210 203 214 206 216 223 217 213 234
222 228 205 214 218 231 222 227 226 213 210 213 197 213 194 197 205 207 207 211 204 210 199 198 203 196 167 205 203 222 203 208 206 223 213 201 217 221 199 222 213 221 217
203 225 207 219 207 214 230 214 208 209 208 205 208 205 216 218 208 213 209 208 214 201 216 217 205 205 200 216 202 216 209 207 205 198 199 202 204 215 214 218 201 210 215
224 225 218 193 220 212 213 200 203 199 208 195 197 208 205 207 208 195 192 192 189 196 200 200 196 193 199 189 220 203 211 214 202 221 208 205 203 218 204 195 219 222 215
198 200 194 194 193 205 199 197 205 198 197 202 189 187 181 201 197 199 194 195 203 204 207 202 206 204 202 204 204 192 205 188 197 208 213 191 215 216 210 203 199 203 217
197 198 206 207 208 203 200 189 183 181 193 193 187 186 202 201 204 203 203 198 203 203 203 206 199 192 202 209 213 192 186 209 208 213 180 205 200 194 204 209 214 222 224
165 166 169 180 186 192 209 210 191 196 183 190 198 204 202 195 199 201 204 193 184 182 178 191 198 203 202 199 216 190 185 202 190 185 224 203 198 203 203 219 189 201 216
172 187 207 191 157 201 192 201 198 209 180 182 184 208 174 199 197 158 203 171 190 185 199 204 209 214 201 188 201 202 204 198 222 216 162 190 179 220 200 212 211 211 207
161 189 169 173 164 191 205 189 182 156 164 170 198 204 201 195 202 189 180 196 188 205 204 197 211 206 198 203 201 198 211 211 201 202 194 202 204 211 214 190 208 204 221
210 153 204 143 161 196 184 222 181 189 169 181 171 197 216 214 214 209 211 186 209 181 196 200 203 207 210 201 196 208 216 227 216 216 144 222 219 233 223 227 209 218 207
172 215 201 172 210 210 185 160 217 214 143 217 167 201 200 182 214 181 205 214 207 194 195 207 205 205 217 215 211 203 200 220 224 231 240 240 225 230 228 227 232 228 229
220 219 167 179 203 167 172 184 164 152 205 211 208 190 218 183 207 204 211 171 214 215 220 215 213 211 228 223 234 226 233 221 236 244 265 240 235 231 251 226 236 239 216
189 206 225 233 232 227 213 190 214 194 222 177 200 206 194 200 197 231 213 223 224 222 215 238 223 228 230 247 265 248 236 236 240 264 250 247 232 238 262 236 234 245 255
227 257 261 249 232 190 227 232 212 246 242 183 191 234 212 237 231 239 248 244 259 250 247 272 266 266 272 245 246 248 265 242 238 239 233 236 242 242 278 240 249 242 250
258 251 253 255 258 260 262 268 269 251 257 260 267 263 267 261 281 258 282 282 275 288 277 264 250 262 251 262 328 401 318 248 289 304 327 276 314 290 277 273 250 237 240
264 262 253 250 258 267 267 262 265 270 265 258 317 267 284 274 272 284 321 284 259 289 249 312 315 257 335 322 342 369 380 385 338 280 270 303 303 238 287 291 245 229 246
276 266 252 260 273 263 256 251 254 313 342 327 268 285 313 308 304 334 300 316 289 332 308 332 339 328 123 308 262 300 343 353 347 350 311 272 255 296 301 295 288 286 277
316 300 299 311 320 318 289 309 310 303 320 290 312 319 315 320 294 285 348 341 327 324 321 241 322 126 350 341 351 366 367 308 343 350 328 307 298 276 264 263 280 288 285
302 302 299 291 270 299 304 304 286 282 294 292 270 311 282 317 317 304 288 316 315 311 301 293 295 348 348 398 362 347 377 339 360 346 327 341 318 294 304 295 291 288 276
311 309 306 302 302 296 308 300 315 317 310 311 309 302 298 322 319 330 313 291 300 353 352 351 344 346 344 335 331 321 340 339 352 353 372 360 335 352 330 316 293 276 290
306 311 307 309 309 307 299 312 292 305 305 297 234 309 291 294 285 306 314 315 309 303 328 343 348 342 343 339 331 328 328 331 356 345 342 344 347 344 347 358 359 359 345
326 313 307 309 318 309 306 282 303 310 305 300 294 299 298 322 302 306 308 295 299 349 333 340 340 352 353 344 328 332 332 319 314 329 360 350 349 316 339 326 331 330 330
327 333 344 342 350 315 313 337 340 309 333 303 330 329 324 306 316 324 327 322 351 358 356 354 339 331 325 333 335 337 329 321 322 323 326 392 368 360 362 314 348 362 357
380 389 399 394 365 393 385 379 372 351 331 349 345 335 334 368 338 340 346 359 350 364 358 372 383 350 338 336 325 329 333 330 333 344 318 322 367 375 385 368 343 347 346
Wind_Speed
56 36 20 18 15 32 22 31 16 16 17 16 14 11 11 12 16 18 13 12 15 17 17 20 23 24 21 24 24 28 27 28 29 30 30 30 29 30 31 28 26 27 20
17 20 23 18 31 25 39 32 16 25 25 14 16 15 16 15 16 15 36 20 16 19 23 25 28 26 27 34 28 30 31 31 28 29 30 35 29 28 30 26 25 29 25
30 21 32 21 36 25 36 23 40 29 24 35 18 19 16 15 19 18 18 22 28 29 26 26 28 31 33 33 34 35 34 33 34 34 35 30 32 28 33 31 28 28 33
32 27 38 35 30 24 26 20 20 31 31 25 33 23 37 35 27 25 25 23 26 24 31 33 32 34 42 37 38 36 38 36 38 36 40 37 40 41 32 36 33 36 34
40 25 41 29 43 35 19 32 35 32 30 34 28 31 23 22 27 25 28 31 31 35 36 37 36 37 39 41 39 41 42 42 43 40 40 41 42 47 44 39 35 36 40
27 24 30 44 31 34 32 41 39 40 35 44 41 33 35 33 31 38 40 41 42 38 39 41 41 42 42 42 47 42 46 49 45 48 48 48 45 51 43 38 49 49 43
46 45 47 48 49 45 46 46 40 43 44 41 45 45 48 43 43 41 44 46 42 45 46 46 49 50 50 50 49 42 49 43 46 50 54 46 52 53 49 44 41 44 49
53 53 53 51 50 45 50 51 47 50 53 52 53 54 50 52 48 49 48 51 51 52 53 53 52 50 54 54 57 53 45 59 58 61 49 56 48 44 53 57 62 66 63
47 49 47 54 60 59 55 56 59 62 51 60 63 57 57 62 59 57 52 55 51 53 51 59 61 61 57 57 64 54 53 57 45 46 66 57 55 57 58 71 49 47 63
55 64 67 68 54 66 70 66 65 64 56 60 63 68 48 69 67 63 65 45 63 57 68 68 67 68 65 50 67 66 68 57 73 72 56 49 56 75 59 70 67 63 52
48 67 49 57 53 74 79 66 64 58 60 52 80 79 79 66 78 69 50 72 67 75 75 71 76 73 69 70 68 65 74 73 63 65 57 61 70 74 78 60 68 56 76
78 60 72 66 53 79 70 83 64 72 56 76 55 77 83 82 84 84 82 57 85 58 76 77 82 74 78 76 70 78 81 84 81 79 48 82 81 85 86 86 71 78 61
72 85 87 66 80 82 71 65 80 83 69 75 59 78 84 69 87 67 91 90 92 72 79 90 87 86 91 89 85 76 76 86 87 90 95 91 83 84 85 85 85 85 87
92 91 74 88 93 62 79 85 62 75 89 88 90 90 89 67 96 98 92 52 96 99 99 98 95 89 98 92 99 93 94 87 92 96 101 88 86 83 89 83 86 89 70
98 98 97 98 98 97 99 96 92 92 94 87 99 85 87 89 90 100 99 103 104 104 99 102 99 98 97 102 102 102 94 91 89 91 88 85 81 85 88 84 83 86 89
98 103 108 109 104 92 100 102 92 106 104 92 77 99 103 102 99 108 107 107 108 106 102 104 99 100 100 95 92 90 93 85 85 82 81 81 84 84 85 83 86 82 81
102 101 101 104 107 108 110 111 111 108 106 104 104 104 106 107 105 105 103 103 100 97 99 97 94 96 91 90 75 61 83 80 78 80 77 77 73 80 82 83 80 75 75
104 104 100 100 103 106 104 102 105 108 108 106 114 100 101 97 99 95 87 93 96 89 94 83 79 86 72 74 66 63 57 59 69 79 80 76 66 78 75 73 74 70 75
105 102 96 101 107 101 98 96 96 93 82 87 97 93 87 83 83 75 81 74 85 72 74 68 65 67 38 71 67 70 60 57 59 61 70 76 77 72 69 73 77 78 79
95 97 99 97 91 90 97 89 86 86 81 86 82 79 79 75 78 77 64 64 65 64 64 55 56 47 57 59 56 52 52 62 59 64 67 71 73 72 72 72 74 77 79
93 92 92 93 92 88 84 82 85 83 80 78 80 72 77 70 69 69 70 64 64 64 64 64 64 53 52 39 48 51 49 51 56 59 59 73 75 70 77 77 77 76 72
90 88 87 88 87 85 83 81 77 75 75 74 72 70 69 66 65 64 64 66 63 52 50 50 52 50 49 50 50 53 50 49 48 50 51 61 62 70 75 77 74 69 75
88 88 86 85 83 81 79 77 76 74 74 73 59 67 67 65 66 63 62 62 60 60 53 49 48 47 45 45 47 45 45 49 50 50 50 52 52 54 55 55 56 54 58
90 85 83 83 81 79 79 77 75 72 72 72 69 67 66 62 63 62 62 61 59 49 51 47 47 45 43 41 43 41 42 45 47 46 50 51 51 52 51 53 54 54 54
89 85 82 81 80 76 76 74 71 70 67 70 65 63 63 62 61 62 61 59 51 47 45 42 47 48 46 44 41 40 40 41 41 41 42 43 52 52 50 50 48 45 45
79 78 75 74 76 71 69 68 68 67 65 64 64 62 61 56 59 58 57 51 52 47 42 40 37 44 45 42 41 39 38 38 37 38 39 40 40 38 33 36 40 39 37
Wind_Direction
285 283 272 265 272 279 279 290 303 327 337 326 321 299 287 288 300 286 266 269 287 287 300 307 302 299 306 307 313 306 316 318 318 325 331 341 341 340 332 341 343 330 345
259 252 256 257 273 281 291 283 284 295 291 296 337 333 327 310 298 287 288 306 303 302 300 299 300 296 296 299 310 315 309 315 308 314 314 335 324 323 337 333 333 318 325
262 248 273 258 288 273 289 281 296 286 285 296 288 291 298 300 288 292 295 291 290 292 304 300 299 299 303 303 301 303 307 314 309 304 314 312 319 313 324 325 315 312 327
276 264 289 283 277 260 276 270 272 279 284 285 288 287 292 288 285 285 286 287 285 288 288 291 292 293 292 299 301 309 303 304 305 317 313 305 317 318 301 325 318 323 316
286 261 284 268 283 272 265 274 279 280 281 285 283 284 291 295 285 288 286 288 296 284 301 300 287 290 290 303 296 301 301 301 302 301 301 303 306 313 312 317 300 311 314
259 258 267 288 272 277 277 281 283 285 288 282 283 286 284 285 284 281 283 284 284 283 287 288 285 285 288 283 302 294 300 301 297 301 302 301 299 308 300 291 315 317 310
281 279 283 283 285 277 279 281 276 283 285 281 288 287 289 285 286 284 285 286 284 283 285 286 289 289 290 290 292 288 293 287 295 299 301 293 304 302 302 298 296 300 309
279 279 272 271 270 273 277 285 283 290 285 285 290 292 279 280 276 279 281 284 282 283 285 285 287 286 289 290 290 288 287 293 295 294 288 300 296 293 301 299 303 305 305
280 279 288 290 290 284 269 270 288 285 289 290 282 272 275 286 285 285 278 288 292 288 289 288 288 287 289 290 291 288 280 291 290 291 293 296 293 297 301 298 296 294 299
282 290 273 287 278 276 286 274 279 269 279 292 293 276 289 283 282 283 283 280 293 293 287 281 282 281 287 285 287 287 287 285 291 289 298 285 283 290 295 296 298 298 299
277 275 285 278 282 285 274 277 289 275 281 284 287 281 287 283 284 281 289 289 295 279 280 288 278 282 291 285 286 288 285 286 290 289 288 287 294 292 292 290 294 298 298
276 270 278 279 272 279 284 271 282 281 287 280 289 277 274 274 273 276 276 295 279 280 289 286 286 288 284 289 291 285 284 284 284 287 278 287 287 288 287 287 293 293 297
289 265 267 292 267 269 282 269 274 269 282 273 276 283 274 297 271 289 277 273 277 292 294 277 284 290 279 280 285 289 289 284 286 286 286 285 284 285 283 284 285 286 288
268 267 284 288 269 288 287 279 277 280 271 271 270 284 272 289 273 279 275 278 273 273 270 276 281 288 278 284 278 284 283 285 284 282 282 281 281 283 279 283 280 282 290
272 274 272 270 270 270 273 279 269 273 269 277 275 274 282 282 281 268 275 274 272 274 281 273 281 282 282 280 278 279 281 281 280 277 277 278 278 279 275 280 282 280 280
267 269 269 269 269 278 271 273 274 274 273 284 283 270 272 271 273 270 271 274 273 274 276 277 277 278 279 280 280 280 277 277 277 276 275 277 277 276 272 277 275 281 283
268 269 270 271 272 273 275 277 278 278 277 276 276 276 277 276 280 277 278 277 278 282 279 279 282 282 282 281 279 272 271 277 272 268 265 272 268 269 271 271 275 280 283
269 269 270 272 273 273 274 275 277 277 277 276 282 276 281 280 280 281 282 278 279 281 284 277 276 283 273 273 273 274 271 264 265 269 269 263 263 273 267 267 276 280 281
271 272 273 274 276 274 273 275 277 283 284 283 279 281 284 284 284 282 280 280 280 280 281 278 277 276 295 274 276 273 266 265 266 259 260 267 270 267 263 260 264 266 271
277 276 276 278 281 281 277 280 281 280 282 280 282 282 281 281 281 282 283 281 279 278 278 282 279 294 275 275 271 267 267 269 261 257 254 260 263 268 270 272 270 268 271
276 276 276 276 275 278 279 280 276 277 279 277 278 280 279 279 279 279 281 280 279 278 278 278 279 276 275 271 269 271 265 267 260 256 261 253 256 265 262 267 269 272 276
277 277 278 278 278 277 280 279 281 281 280 280 279 279 280 280 280 280 278 277 278 278 278 278 277 277 277 276 276 276 271 270 263 262 261 259 259 260 260 263 269 273 273
276 277 277 278 279 279 278 278 277 278 278 277 277 278 277 277 277 278 278 279 279 280 279 277 278 278 276 274 274 273 273 267 260 261 261 262 262 262 262 263 265 266 268
277 276 276 277 277 276 276 272 275 276 276 275 275 275 275 278 277 277 277 276 277 276 279 279 279 279 281 278 273 274 272 270 270 266 258 260 260 265 261 263 263 263 265
277 277 278 277 276 274 273 276 276 274 275 273 275 275 275 275 276 276 276 277 273 274 275 274 277 278 279 279 278 276 273 271 270 268 267 265 263 263 263 263 263 264 263
276 276 276 275 275 276 275 275 275 273 272 273 273 273 273 264 273 271 270 267 271 274 275 283 286 270 276 277 279 279 274 272 270 267 267 267 263 267 268 263 262 264 268